This is the latest recevied weather packets stored in our database for station/object KJ6APE. If no packets are shown the sender has not sent any weather packets the latest 10 day(s).
| Time | Temp. | Humidity | Pressure | Rain* | Wind** | Luminosity | Snow |
|---|---|---|---|---|---|---|---|
| 1778038191 | 15° C | 73% | 1016.9 hPa | 0 mm | - | 0 W/m² | - |
| 1778037889 | 15° C | 72% | 1017 hPa | 0 mm | - | 0 W/m² | - |
| 1778037585 | 15° C | 73% | 1016.6 hPa | 0 mm | - | 0 W/m² | - |
| 1778037283 | 15° C | 72% | 1016.5 hPa | 0 mm | - | 0 W/m² | - |
| 1778036980 | 15° C | 72% | 1016.6 hPa | 0 mm | - | 1 W/m² | - |
| 1778036678 | 15° C | 72% | 1016.4 hPa | 0 mm | - | 2 W/m² | - |
| 1778036374 | 15.56° C | 71% | 1016.5 hPa | 0 mm | - | 3 W/m² | - |
| 1778036071 | 15.56° C | 71% | 1016.4 hPa | 0 mm | - | 4 W/m² | - |
| 1778035768 | 15.56° C | 70% | 1016.3 hPa | 0 mm | - | 5 W/m² | - |
| 1778035465 | 15.56° C | 70% | 1016.3 hPa | 0 mm | - | 7 W/m² | - |
| 1778035161 | 15.56° C | 70% | 1016.3 hPa | 0 mm | - | 10 W/m² | - |
| 1778034858 | 15.56° C | 70% | 1016.3 hPa | 0 mm | - | 12 W/m² | - |
| 1778034554 | 15.56° C | 70% | 1016.3 hPa | 0 mm | - | 13 W/m² | - |
| 1778034253 | 15.56° C | 70% | 1016.2 hPa | 0 mm | - | 17 W/m² | - |
| 1778033950 | 15.56° C | 70% | 1016.1 hPa | 0 mm | - | 19 W/m² | - |
| 1778033647 | 16.11° C | 70% | 1016 hPa | 0 mm | - | 23 W/m² | - |
| 1778033343 | 16.11° C | 70% | 1016.1 hPa | 0 mm | - | 29 W/m² | - |
| 1778033042 | 16.11° C | 70% | 1016 hPa | 0 mm | - | 36 W/m² | - |
| 1778032739 | 16.11° C | 69% | 1015.8 hPa | 0 mm | - | 43 W/m² | - |
| 1778032436 | 16.11° C | 69% | 1015.7 hPa | 0 mm | - | 56 W/m² | - |
| 1778032133 | 16.11° C | 69% | 1015.9 hPa | 0 mm | - | 62 W/m² | - |
| 1778031830 | 16.67° C | 69% | 1015.8 hPa | 0 mm | - | 66 W/m² | - |
| 1778031526 | 16.67° C | 70% | 1015.9 hPa | 0 mm | - | 75 W/m² | - |
| 1778031224 | 16.67° C | 69% | 1015.6 hPa | 0 mm | - | 107 W/m² | - |
| 1778030920 | 16.67° C | 69% | 1015.7 hPa | 0 mm | - | 127 W/m² | - |
* Rain latest hour (hover to see other rain measurements)
** Current wind speed in m/s (hover to see current wind gust speed)